Location: Niedergestelen
(46.3129°N, 7.7822°E)
Time: 14:02:50
(UTC+00:00)

Cosmos 773 Rocket - Pass Details

Date: 01 December 2020
Orbit: 746 x 776 km, 74.1° (Epoch: 26 January)

Event Time Altitude Azimuth Distance (km) Brightness Sun altitude
Rises 16:40:48 0° 192° (SSW) 3,223 7.8 -9.6°
Reaches altitude 10° 16:43:10 10° 190° (S) 2,305 6.9 -9.9°
Maximum altitude 16:48:22 69° 108° (ESE) 827 4.0 -10.8°
Drops below altitude 10° 16:53:39 10° 26° (NNE) 2,334 6.1 -11.6°
Enters shadow 16:54:43 - 25° (NNE) 2,748 6.5 -11.8°
